Time,TemperatureF,DewpointF,PressureIn,WindDirection,WindDirectionDegrees,WindSpeedMPH,WindSpeedGustMPH,Humidity,HourlyPrecipIn,Conditions,Clouds,dailyrainin,SoftwareType,DateUTC
2013-03-01 00:04:00,20.5,13.8,30.40,NE,45,1.3,3.4,75,0.00,,,0.00,WUHU216HW,2013-03-01 06:04:00,
2013-03-01 00:09:00,20.5,13.8,30.40,NE,45,1.3,1.3,75,0.00,,,0.00,WUHU216HW,2013-03-01 06:09:00,
2013-03-01 00:30:00,20.2,13.4,30.40,NE,45,3.1,3.1,75,0.00,,,0.00,WUHU216HW,2013-03-01 06:30:00,
2013-03-01 00:35:00,20.2,13.4,30.40,NE,45,3.1,3.1,75,0.00,,,0.00,WUHU216HW,2013-03-01 06:35:00,
2013-03-01 00:59:00,19.8,13.1,30.40,NE,45,3.4,3.4,75,0.00,,,0.00,WUHU216HW,2013-03-01 06:59:00,
2013-03-01 01:04:00,19.8,13.1,30.40,NE,45,4.7,4.7,75,0.00,,,0.00,WUHU216HW,2013-03-01 07:04:00,
2013-03-01 01:09:00,19.8,13.1,30.40,NE,45,4.7,4.7,75,0.00,,,0.00,WUHU216HW,2013-03-01 07:09:00,
2013-03-01 01:30:00,19.3,12.5,30.40,North,0,3.1,3.1,75,0.00,,,0.00,WUHU216HW,2013-03-01 07:30:00,
2013-03-01 01:35:00,19.3,12.5,30.40,North,0,3.1,3.1,75,0.00,,,0.00,WUHU216HW,2013-03-01 07:35:00,
2013-03-01 01:59:00,19.3,12.8,30.41,NNE,23,3.8,3.8,76,0.00,,,0.00,WUHU216HW,2013-03-01 07:59:00,
2013-03-01 02:04:00,19.3,12.8,30.41,NNE,23,3.8,3.8,76,0.00,,,0.00,WUHU216HW,2013-03-01 08:04:00,
2013-03-01 02:30:00,19.3,12.8,30.41,ENE,68,2.0,2.0,76,0.00,,,0.00,WUHU216HW,2013-03-01 08:30:00,
2013-03-01 02:35:00,19.3,12.8,30.41,ENE,68,2.0,2.0,76,0.00,,,0.00,WUHU216HW,2013-03-01 08:35:00,
2013-03-01 02:59:00,19.3,12.8,30.41,ENE,68,4.0,4.0,76,0.00,,,0.00,WUHU216HW,2013-03-01 08:59:00,
2013-03-01 03:04:00,19.3,12.8,30.41,ENE,68,4.0,4.0,76,0.00,,,0.00,WUHU216HW,2013-03-01 09:04:00,
2013-03-01 03:30:00,19.3,12.8,30.41,NNE,23,1.1,1.1,76,0.00,,,0.00,WUHU216HW,2013-03-01 09:30:00,
2013-03-01 03:35:00,19.3,12.8,30.41,NNE,23,1.1,1.1,76,0.00,,,0.00,WUHU216HW,2013-03-01 09:35:00,
2013-03-01 03:59:00,19.1,13.0,30.41,NNW,338,1.8,1.8,77,0.00,,,0.00,WUHU216HW,2013-03-01 09:59:00,
2013-03-01 04:05:00,19.1,13.0,30.41,NNW,338,1.8,1.8,77,0.00,,,0.00,WUHU216HW,2013-03-01 10:05:00,
2013-03-01 04:30:00,19.1,13.2,30.41,NE,45,3.1,3.1,78,0.00,,,0.00,WUHU216HW,2013-03-01 10:30:00,
2013-03-01 04:35:00,19.1,13.2,30.41,NE,45,3.1,3.1,78,0.00,,,0.00,WUHU216HW,2013-03-01 10:35:00,
2013-03-01 05:00:00,18.9,13.1,30.42,NNE,23,4.0,4.0,78,0.00,,,0.00,WUHU216HW,2013-03-01 11:00:00,
2013-03-01 05:05:00,18.9,13.1,30.42,NNE,23,4.0,4.0,78,0.00,,,0.00,WUHU216HW,2013-03-01 11:05:00,
2013-03-01 05:30:00,18.7,12.9,30.43,NE,45,3.4,3.4,78,0.00,,,0.00,WUHU216HW,2013-03-01 11:30:00,
2013-03-01 05:35:00,18.7,12.9,30.43,NE,45,3.4,3.4,78,0.00,,,0.00,WUHU216HW,2013-03-01 11:35:00,
2013-03-01 06:00:00,18.5,12.7,30.43,NE,45,1.8,1.8,78,0.00,,,0.00,WUHU216HW,2013-03-01 12:00:00,
2013-03-01 06:04:00,18.5,12.7,30.43,NE,45,1.8,1.8,78,0.00,,,0.00,WUHU216HW,2013-03-01 12:04:00,
2013-03-01 06:30:00,18.2,12.7,30.44,NNE,23,1.1,1.1,79,0.00,,,0.00,WUHU216HW,2013-03-01 12:30:00,
2013-03-01 06:35:00,18.2,12.7,30.44,NNE,23,1.1,1.1,79,0.00,,,0.00,WUHU216HW,2013-03-01 12:35:00,
2013-03-01 06:59:00,18.0,12.5,30.46,NNE,23,2.5,2.5,79,0.00,,,0.00,WUHU216HW,2013-03-01 12:59:00,
2013-03-01 07:04:00,18.0,12.5,30.46,North,0,1.8,2.5,79,0.00,,,0.00,WUHU216HW,2013-03-01 13:04:00,
2013-03-01 07:09:00,18.0,12.5,30.46,North,0,1.8,1.8,79,0.00,,,0.00,WUHU216HW,2013-03-01 13:09:00,
2013-03-01 07:30:00,18.0,12.3,30.47,NE,45,4.0,4.0,78,0.00,,,0.00,WUHU216HW,2013-03-01 13:30:00,
2013-03-01 07:35:00,18.0,12.3,30.47,NE,45,4.0,4.0,78,0.00,,,0.00,WUHU216HW,2013-03-01 13:35:00,
2013-03-01 07:59:00,18.2,12.3,30.48,NNW,338,1.6,1.6,78,0.00,,,0.00,WUHU216HW,2013-03-01 13:59:00,
2013-03-01 08:04:00,18.2,12.3,30.48,NNE,23,2.2,2.2,78,0.00,,,0.00,WUHU216HW,2013-03-01 14:04:00,
2013-03-01 08:09:00,18.2,12.3,30.48,NNE,23,2.2,2.2,78,0.00,,,0.00,WUHU216HW,2013-03-01 14:09:00,
2013-03-01 08:30:00,18.7,12.0,30.48,NE,45,3.1,3.1,75,0.00,,,0.00,WUHU216HW,2013-03-01 14:30:00,
2013-03-01 08:35:00,18.7,12.0,30.48,NE,45,3.1,3.1,75,0.00,,,0.00,WUHU216HW,2013-03-01 14:35:00,
2013-03-01 08:59:00,20.2,12.8,30.48,NE,45,3.4,3.4,73,0.00,,,0.00,WUHU216HW,2013-03-01 14:59:00,
2013-03-01 09:04:00,20.0,12.6,30.48,NE,45,3.4,3.4,73,0.00,,,0.00,WUHU216HW,2013-03-01 15:04:00,
2013-03-01 09:09:00,20.0,12.6,30.48,NE,45,3.4,3.4,73,0.00,,,0.00,WUHU216HW,2013-03-01 15:09:00,
2013-03-01 09:30:00,21.8,13.5,30.48,NE,45,4.0,4.0,70,0.00,,,0.00,WUHU216HW,2013-03-01 15:30:00,
2013-03-01 09:35:00,21.8,13.5,30.48,NE,45,4.0,4.0,70,0.00,,,0.00,WUHU216HW,2013-03-01 15:35:00,
2013-03-01 09:59:00,22.7,13.7,30.49,North,0,2.2,2.2,68,0.00,,,0.00,WUHU216HW,2013-03-01 15:59:00,
2013-03-01 10:04:00,22.7,14.0,30.49,North,0,1.1,2.2,69,0.00,,,0.00,WUHU216HW,2013-03-01 16:04:00,
2013-03-01 10:09:00,22.7,14.0,30.49,North,0,1.1,1.1,69,0.00,,,0.00,WUHU216HW,2013-03-01 16:09:00,
2013-03-01 10:30:00,23.4,13.7,30.50,North,0,2.2,2.2,66,0.00,,,0.00,WUHU216HW,2013-03-01 16:30:00,
2013-03-01 10:35:00,23.4,13.7,30.50,North,0,2.2,2.2,66,0.00,,,0.00,WUHU216HW,2013-03-01 16:35:00,
2013-03-01 10:59:00,24.1,13.3,30.50,NE,45,3.6,3.6,63,0.00,,,0.00,WUHU216HW,2013-03-01 16:59:00,
2013-03-01 11:04:00,24.1,13.3,30.50,NE,45,3.6,3.6,63,0.00,,,0.00,WUHU216HW,2013-03-01 17:04:00,
2013-03-01 11:30:00,26.6,15.7,30.49,NNE,23,2.2,2.2,63,0.00,,,0.00,WUHU216HW,2013-03-01 17:30:00,
2013-03-01 11:35:00,26.6,15.7,30.49,NNE,23,2.2,2.2,63,0.00,,,0.00,WUHU216HW,2013-03-01 17:35:00,
2013-03-01 11:59:00,28.3,16.2,30.49,NE,45,1.1,1.1,60,0.00,,,0.00,WUHU216HW,2013-03-01 17:59:00,
2013-03-01 12:04:00,28.3,16.2,30.49,NE,45,1.1,1.1,60,0.00,,,0.00,WUHU216HW,2013-03-01 18:04:00,
2013-03-01 12:30:00,28.4,15.1,30.48,ENE,68,2.9,2.9,57,0.00,,,0.00,WUHU216HW,2013-03-01 18:30:00,
2013-03-01 12:35:00,28.4,15.1,30.48,ENE,68,2.9,2.9,57,0.00,,,0.00,WUHU216HW,2013-03-01 18:35:00,
2013-03-01 12:59:00,28.4,14.3,30.47,ENE,68,3.4,3.4,55,0.00,,,0.00,WUHU216HW,2013-03-01 18:59:00,
2013-03-01 13:04:00,28.4,14.3,30.47,ENE,68,3.4,3.4,55,0.00,,,0.00,WUHU216HW,2013-03-01 19:04:00,
2013-03-01 13:30:00,29.9,15.2,30.47,NNW,338,2.5,2.5,54,0.00,,,0.00,WUHU216HW,2013-03-01 19:30:00,
2013-03-01 13:35:00,29.9,15.2,30.47,NNW,338,2.5,2.5,54,0.00,,,0.00,WUHU216HW,2013-03-01 19:35:00,
2013-03-01 13:59:00,28.8,14.2,30.46,North,0,1.6,1.6,54,0.00,,,0.00,WUHU216HW,2013-03-01 19:59:00,
2013-03-01 14:04:00,28.8,14.2,30.46,North,0,1.6,1.6,54,0.00,,,0.00,WUHU216HW,2013-03-01 20:04:00,
2013-03-01 14:30:00,30.1,14.9,30.46,NE,45,1.3,1.3,53,0.00,,,0.00,WUHU216HW,2013-03-01 20:30:00,
2013-03-01 14:35:00,30.1,14.9,30.46,NE,45,1.3,1.3,53,0.00,,,0.00,WUHU216HW,2013-03-01 20:35:00,
2013-03-01 14:59:00,29.5,14.0,30.45,North,0,1.8,1.8,52,0.00,,,0.00,WUHU216HW,2013-03-01 20:59:00,
2013-03-01 15:04:00,29.5,14.0,30.45,North,0,1.8,1.8,52,0.00,,,0.00,WUHU216HW,2013-03-01 21:04:00,
2013-03-01 15:30:00,29.5,14.0,30.45,North,0,3.6,3.6,52,0.00,,,0.00,WUHU216HW,2013-03-01 21:30:00,
2013-03-01 15:35:00,29.5,14.0,30.45,North,0,3.6,3.6,52,0.00,,,0.00,WUHU216HW,2013-03-01 21:35:00,
2013-03-01 15:40:00,29.5,14.0,30.45,North,0,3.6,3.6,52,0.00,,,0.00,WUHU216HW,2013-03-01 21:40:00,
2013-03-01 15:59:00,27.9,11.7,30.46,NE,45,3.8,3.8,50,0.00,,,0.00,WUHU216HW,2013-03-01 21:59:00,
2013-03-01 16:05:00,27.9,11.7,30.46,NE,45,3.8,3.8,50,0.00,,,0.00,WUHU216HW,2013-03-01 22:05:00,
2013-03-01 16:30:00,27.9,12.2,30.46,North,0,1.1,1.1,51,0.00,,,0.00,WUHU216HW,2013-03-01 22:30:00,
2013-03-01 16:35:00,27.9,12.2,30.46,North,0,1.1,1.1,51,0.00,,,0.00,WUHU216HW,2013-03-01 22:35:00,
2013-03-01 16:59:00,26.6,9.5,30.46,NNE,23,2.7,2.7,48,0.00,,,0.00,WUHU216HW,2013-03-01 22:59:00,
2013-03-01 17:05:00,26.6,9.5,30.46,NNE,23,2.7,2.7,48,0.00,,,0.00,WUHU216HW,2013-03-01 23:05:00,
2013-03-01 17:30:00,25.6,9.5,30.47,North,0,0.4,0.4,50,0.00,,,0.00,WUHU216HW,2013-03-01 23:30:00,
2013-03-01 17:35:00,25.6,9.5,30.47,North,0,0.4,0.4,50,0.00,,,0.00,WUHU216HW,2013-03-01 23:35:00,
2013-03-01 17:59:00,24.1,9.0,30.48,North,0,1.1,1.1,52,0.00,,,0.00,WUHU216HW,2013-03-01 23:59:00,
2013-03-01 18:04:00,24.1,9.0,30.48,North,0,1.1,1.1,52,0.00,,,0.00,WUHU216HW,2013-03-02 00:04:00,
2013-03-01 18:30:00,23.0,8.4,30.48,North,0,1.8,1.8,53,0.00,,,0.00,WUHU216HW,2013-03-02 00:30:00,
2013-03-01 18:35:00,23.0,8.4,30.48,North,0,1.8,1.8,53,0.00,,,0.00,WUHU216HW,2013-03-02 00:35:00,
2013-03-01 18:59:00,22.0,6.9,30.48,North,0,1.8,1.8,52,0.00,,,0.00,WUHU216HW,2013-03-02 00:59:00,
2013-03-01 19:04:00,22.0,6.9,30.48,North,0,1.8,1.8,52,0.00,,,0.00,WUHU216HW,2013-03-02 01:04:00,
2013-03-01 19:30:00,20.9,7.1,30.49,North,0,1.3,1.3,55,0.00,,,0.00,WUHU216HW,2013-03-02 01:30:00,
2013-03-01 19:35:00,20.9,7.1,30.49,North,0,1.3,1.3,55,0.00,,,0.00,WUHU216HW,2013-03-02 01:35:00,
2013-03-01 19:59:00,20.0,9.0,30.49,North,0,0.4,0.4,62,0.00,,,0.00,WUHU216HW,2013-03-02 01:59:00,
2013-03-01 20:04:00,20.0,9.0,30.49,North,0,0.4,0.4,62,0.00,,,0.00,WUHU216HW,2013-03-02 02:04:00,
2013-03-01 20:09:00,20.0,9.0,30.49,North,0,0.4,0.4,62,0.00,,,0.00,WUHU216HW,2013-03-02 02:09:00,
2013-03-01 20:30:00,18.9,9.3,30.49,North,0,1.3,1.3,66,0.00,,,0.00,WUHU216HW,2013-03-02 02:30:00,
2013-03-01 20:35:00,18.9,9.3,30.49,North,0,1.3,1.3,66,0.00,,,0.00,WUHU216HW,2013-03-02 02:35:00,
2013-03-01 20:59:00,18.0,9.2,30.50,NNE,23,1.1,1.1,68,0.00,,,0.00,WUHU216HW,2013-03-02 02:59:00,
2013-03-01 21:04:00,18.0,9.2,30.50,NNE,23,1.1,1.1,68,0.00,,,0.00,WUHU216HW,2013-03-02 03:04:00,
2013-03-01 21:09:00,18.0,9.2,30.50,NNE,23,1.1,1.1,68,0.00,,,0.00,WUHU216HW,2013-03-02 03:09:00,
2013-03-01 21:30:00,16.9,9.1,30.50,East,90,2.7,2.7,71,0.00,,,0.00,WUHU216HW,2013-03-02 03:30:00,
2013-03-01 21:35:00,16.9,9.1,30.50,East,90,2.7,2.7,71,0.00,,,0.00,WUHU216HW,2013-03-02 03:35:00,
2013-03-01 21:40:00,16.9,9.1,30.50,East,90,2.7,2.7,71,0.00,,,0.00,WUHU216HW,2013-03-02 03:40:00,
2013-03-01 21:59:00,15.8,8.0,30.50,NNE,23,1.3,1.3,71,0.00,,,0.00,WUHU216HW,2013-03-02 03:59:00,
2013-03-01 22:04:00,15.8,8.0,30.50,NNE,23,2.2,2.2,71,0.00,,,0.00,WUHU216HW,2013-03-02 04:04:00,
2013-03-01 22:09:00,15.8,8.0,30.50,NNE,23,2.2,2.2,71,0.00,,,0.00,WUHU216HW,2013-03-02 04:09:00,
2013-03-01 22:30:00,14.9,6.6,30.50,North,0,0.2,0.2,69,0.00,,,0.00,WUHU216HW,2013-03-02 04:30:00,
2013-03-01 22:35:00,14.9,6.6,30.50,North,0,0.2,0.2,69,0.00,,,0.00,WUHU216HW,2013-03-02 04:35:00,
2013-03-01 22:59:00,13.9,5.6,30.50,North,0,0.0,0.0,69,0.00,,,0.00,WUHU216HW,2013-03-02 04:59:00,
2013-03-01 23:00:00,13.9,5.9,30.50,North,0,0.0,0.0,70,0.00,,,0.00,WUHU216HW,2013-03-02 05:00:00,
2013-03-01 23:05:00,13.9,5.9,30.50,North,0,0.0,0.0,70,0.00,,,0.00,WUHU216HW,2013-03-02 05:05:00,
2013-03-01 23:30:00,12.1,3.8,30.48,North,0,0.0,0.0,69,0.00,,,0.00,WUHU216HW,2013-03-02 05:30:00,
2013-03-01 23:35:00,12.1,3.8,30.48,North,0,0.0,0.0,69,0.00,,,0.00,WUHU216HW,2013-03-02 05:35:00,
2013-03-01 23:59:00,10.8,2.9,30.48,North,0,0.0,0.0,70,0.00,,,0.00,WUHU216HW,2013-03-02 05:59:00,